Location: Chantarel
(45.1638°N, 1.7873°E)
Time: 20:46:32
(UTC+00:00)

CSL-04 DEB - Pass Details

Date: 03 March 2021
Orbit: 545 x 627 km, 98.8° (Epoch: 12 April)

Event Time Altitude Azimuth Distance (km) Brightness Sun altitude
Rises 18:13:08 0° 13° (NNE) 2,730 7.7 -6.1°
Reaches altitude 10° 18:15:15 10° 13° (NNE) 1,837 6.8 -6.5°
Maximum altitude 18:19:12 84° 287° (WNW) 566 4.4 -7.2°
Drops below altitude 10° 18:23:13 10° 198° (SSW) 1,856 7.3 -7.9°
Sets 18:25:22 0° 198° (SSW) 2,760 8.2 -8.3°
